Location: Babice
(50.3480°N, 22.9363°E)
Time: 11:20:15
(UTC+00:00)

COBE Rocket - Pass Details

Date: 14 July 2020
Orbit: 679 x 783 km, 97.1° (Epoch: 07 August)

Event Time Altitude Azimuth Distance (km) Brightness Sun altitude
Exits shadow 00:44:23 - 163° (SSE) 2,686 6.4 -12.5°
Reaches altitude 10° 00:45:25 10° 163° (SSE) 2,272 6.1 -12.4°
Maximum altitude 00:50:26 83° 76° (ENE) 749 4.0 -12.0°
Drops below altitude 10° 00:55:20 10° 349° (NNW) 2,222 7.1 -11.6°
Sets 00:57:35 0° 349° (NNW) 3,131 7.9 -11.4°
